DW9313 Weather Reports


time (UTC)temp
C
wind
direction
speed
KPH
gust
KPH
rain 1hr
cm
rain 24hr
cm
rain mn
cm
humidity
%
barometer
mb
20260507185751 12 324 0.0 4.8 0.00 0.51 0.05 77 1012.3
20260507185249 12 329 1.6 9.7 0.00 0.51 0.05 76 1012.3
20260507184750 12 317 1.6 4.8 0.00 0.51 0.05 76 1012.3
20260507184249 12 319 1.6 8.0 0.00 0.51 0.05 76 1012.4
20260507183749 12 358 1.6 8.0 0.00 0.51 0.05 76 1012.4
20260507183250 12 298 0.0 3.2 0.00 0.51 0.05 76 1012.4
20260507182250 12 357 0.0 4.8 0.00 0.51 0.05 76 1012.3
20260507181750 12 302 1.6 8.0 0.00 0.51 0.05 76 1012.2
20260507181249 12 287 1.6 9.7 0.00 0.51 0.05 76 1012.2
20260507180751 12 153 1.6 9.7 0.00 0.51 0.05 75 1012.2
20260507180249 12 327 3.2 9.7 0.00 0.51 0.05 76 1012.2
20260507175249 12 321 4.8 12.9 0.00 0.51 0.05 76 1012.2
20260507174751 12 332 6.4 12.9 0.00 0.51 0.05 75 1012.2
20260507174250 12 323 6.4 11.3 0.00 0.51 0.05 75 1012.2
20260507173750 12 324 8.0 14.5 0.00 0.51 0.05 73 1012.2
20260507173250 13 311 4.8 14.5 0.00 0.51 0.05 75 1012.2
20260507172749 13 315 6.4 12.9 0.00 0.51 0.05 74 1012.2
20260507172250 13 312 4.8 14.5 0.00 0.51 0.05 73 1012.2
20260507171750 13 329 6.4 14.5 0.00 0.51 0.05 71 1012.1
20260507171251 13 293 4.8 11.3 0.00 0.51 0.05 71 1012.2
20260507170750 13 305 1.6 16.1 0.00 0.51 0.05 74 1012.3
20260507170252 13 312 8.0 14.5 0.00 0.51 0.05 72 1012.3
20260507165250 13 338 3.2 11.3 0.03 0.51 0.05 75 1012.3
20260507164751 13 317 3.2 12.9 0.03 0.51 0.05 73 1012.3
20260507164252 13 318 9.7 16.1 0.03 0.51 0.05 71 1012.3
20260507163751 14 297 4.8 12.9 0.00 0.51 0.08 72 1012.3
20260507162750 14 323 3.2 14.5 0.00 0.51 0.08 72 1012.4
20260507161750 15 322 4.8 16.1 0.00 0.48 0.05 69 1012.4
20260507161251 15 321 3.2 11.3 0.00 0.48 0.05 69 1012.4
20260507160751 15 2 3.2 12.9 0.00 0.48 0.05 68 1012.4
20260507160252 15 316 3.2 9.7 0.00 0.48 0.05 70 1012.4
20260507155250 14 288 8.0 14.5 0.03 0.48 0.08 69 1012.4
20260507154250 15 324 4.8 12.9 0.03 0.48 0.08 67 1012.3
20260507153752 15 319 3.2 12.9 0.03 0.48 0.08 70 1012.3
20260507153250 15 314 8.0 16.1 0.03 0.48 0.08 68 1012.2
20260507152752 15 290 3.2 19.3 0.03 0.48 0.08 70 1012.1
20260507152251 15 325 8.0 19.3 0.03 0.48 0.08 70 1012.1
20260507151751 15 321 3.2 16.1 0.00 0.46 0.05 71 1012.1
20260507151252 14 326 4.8 12.9 0.00 0.46 0.05 72 1012.2
20260507145751 14 315 4.8 11.3 0.00 0.46 0.05 72 1012.3
20260507145252 14 348 4.8 16.1 0.00 0.46 0.05 73 1012.3
20260507144751 15 311 9.7 20.9 0.00 0.46 0.05 71 1012.2
20260507144252 15 305 8.0 14.5 0.00 0.46 0.05 70 1012.3
20260507143751 15 320 3.2 11.3 0.00 0.46 0.05 70 1012.3
20260507142751 15 325 6.4 16.1 0.00 0.46 0.05 65 1012.4
20260507142251 15 317 4.8 12.9 0.00 0.46 0.05 65 1012.4
20260507141752 15 313 4.8 14.5 0.00 0.46 0.05 66 1012.4
20260507141251 15 346 4.8 11.3 0.00 0.46 0.05 65 1012.3
20260507140751 15 334 4.8 19.3 0.00 0.46 0.05 67 1012.3
20260507135752 15 284 3.2 12.9 0.00 0.46 0.05 68 1012.3
20260507135251 15 291 4.8 11.3 0.00 0.46 0.05 67 1012.4
20260507134752 15 332 3.2 9.7 0.00 0.46 0.05 67 1012.4
20260507134251 15 198 4.8 14.5 0.00 0.46 0.05 69 1012.3
20260507133752 15 320 3.2 9.7 0.08 0.46 0.05 68 1012.4
20260507133253 15 289 3.2 19.3 0.08 0.46 0.05 68 1012.3
20260507132251 15 309 3.2 14.5 0.10 0.46 0.05 69 1012.3
20260507131752 15 259 4.8 12.9 0.10 0.46 0.05 70 1012.3
20260507131252 15 342 4.8 14.5 0.10 0.46 0.05 69 1012.4
20260507130251 15 199 4.8 9.7 0.10 0.46 0.05 69 1012.4
20260507125752 15 332 3.2 9.7 0.10 0.46 0.05 68 1012.5
20260507125252 15 339 3.2 20.9 0.08 0.46 0.13 69 1012.5
20260507124751 15 322 3.2 9.7 0.08 0.46 0.13 69 1012.4
20260507124253 15 124 4.8 12.9 0.08 0.46 0.13 71 1012.5
20260507123752 15 198 4.8 14.5 0.08 0.46 0.13 71 1012.5
20260507123252 15 353 6.4 16.1 0.00 0.38 0.05 69 1012.5
20260507122753 15 281 4.8 19.3 0.00 0.38 0.05 70 1012.5
20260507121753 15 280 3.2 14.5 0.00 0.36 0.05 68 1012.6
20260507121254 14 152 3.2 12.9 0.00 0.36 0.05 67 1012.6
20260507120752 14 338 3.2 14.5 0.00 0.36 0.05 69 1012.6
20260507120253 15 338 3.2 11.3 0.00 0.36 0.05 70 1012.6
20260507115752 14 213 1.6 11.3 0.00 0.36 0.05 72 1012.6
20260507115252 14 319 3.2 11.3 0.00 0.36 0.05 72 1012.6
20260507114753 13 347 3.2 11.3 0.00 0.36 0.05 72 1012.6
20260507114252 14 338 1.6 9.7 0.00 0.36 0.05 72 1012.6
20260507113753 14 327 1.6 9.7 0.05 0.36 0.05 73 1012.5
20260507113253 14 355 3.2 16.1 0.00 0.36 0.05 72 1012.6
20260507112752 14 192 1.6 14.5 0.00 0.36 0.05 73 1012.6
20260507112253 13 14 4.8 11.3 0.00 0.36 0.05 72 1012.6
20260507111752 13 298 4.8 14.5 0.00 0.36 0.05 73 1012.6
20260507111253 13 120 3.2 9.7 0.00 0.36 0.05 71 1012.5
20260507110753 13 81 3.2 11.3 0.05 0.36 0.05 72 1012.5
20260507110253 13 307 4.8 12.9 0.28 0.36 0.10 73 1012.6
20260507105752 13 170 1.6 9.7 0.05 0.36 0.10 74 1012.6
20260507105253 13 310 3.2 9.7 0.08 0.36 0.10 76 1012.6
20260507104752 13 150 1.6 4.8 0.08 0.36 0.10 76 1012.6
20260507104254 13 144 1.6 9.7 0.08 0.36 0.10 76 1012.6
20260507103754 12 330 3.2 11.3 0.08 0.36 0.10 76 1012.6
20260507102754 13 305 3.2 12.9 0.03 0.30 0.05 78 1012.6
20260507102254 12 291 3.2 8.0 0.03 0.30 0.05 78 1012.6
20260507101753 12 232 0.0 4.8 0.03 0.30 0.05 81 1012.6
20260507101253 12 259 1.6 8.0 0.05 0.30 0.05 81 1012.6
20260507100754 12 179 1.6 8.0 0.28 0.30 0.30 85 1012.6
20260507100254 12 231 3.2 8.0 0.15 0.18 0.18 87 1012.6
20260507095755 11 165 0.0 4.8 0.05 0.08 0.08 88 1012.6
20260507095255 11 328 0.0 8.0 0.03 0.05 0.05 88 1012.6
20260507094753 11 203 1.6 8.0 0.03 0.05 0.05 87 1012.6
20260507094254 11 180 4.8 9.7 0.03 0.05 0.05 86 1012.6
20260507093754 11 146 1.6 4.8 0.03 0.05 0.05 85 1012.6
20260507093255 11 161 0.0 1.6 0.03 0.05 0.05 84 1012.5
20260507092754 11 278 1.6 8.0 0.03 0.05 0.05 84 1012.5
20260507092254 12 317 1.6 8.0 0.03 0.03 0.03 85 1012.4
20260507091754 12 301 1.6 9.7 0.03 0.03 0.03 85 1012.4
20260507085753 11 163 4.8 9.7 0.03 0.03 0.03 88 1012.4
20260507085254 11 158 4.8 9.7 0.03 0.03 0.03 88 1012.5
20260507084753 11 139 1.6 9.7 0.03 0.03 0.03 89 1012.4
20260507084253 11 146 1.6 8.0 0.03 0.03 0.03 88 1012.5
20260507083754 11 188 1.6 9.7 0.03 0.03 0.03 88 1012.4
20260507082755 11 199 0.0 4.8 0.03 0.03 0.03 86 1012.4
20260507081754 11 176 1.6 11.3 0.00 0.00 0.00 83 1012.5
20260507081254 11 132 1.6 4.8 0.00 0.00 0.00 81 1012.4
20260507080754 11 278 3.2 12.9 0.00 0.00 0.00 78 1012.4
20260507080254 11 177 9.7 14.5 0.00 0.00 0.00 74 1012.3
20260507075754 12 180 1.6 11.3 0.00 0.00 0.00 74 1012.3
20260507075255 12 179 8.0 12.9 0.00 0.00 0.00 72 1012.3
20260507074755 12 176 8.0 12.9 0.00 0.00 0.00 73 1012.2
20260507074254 12 154 3.2 9.7 0.00 0.00 0.00 73 1012.1
20260507072754 12 151 4.8 11.3 0.00 0.00 0.00 75 1012.2
20260507072254 12 176 4.8 11.3 0.00 0.00 0.00 77 1012.1
20260507071754 11 152 4.8 11.3 0.00 0.00 0.00 78 1012.1
20260507071254 11 161 4.8 11.3 0.00 0.00 0.00 77 1012.2
20260507070755 11 179 6.4 12.9 0.00 0.00 0.00 77 1012.1
20260507070255 11 135 4.8 11.3 0.00 0.00 0.00 79 1012.1
20260507065756 11 150 6.4 12.9 0.00 0.00 0.00 80 1012.1
20260507065254 11 126 8.0 12.9 0.00 0.00 0.00 81 1012.1
20260507064254 11 111 1.6 3.2 0.00 0.00 0.00 82 1012.3
20260507063256 11 128 0.0 3.2 0.00 0.00 0.00 82 1012.3
20260507062755 10 98 0.0 1.6 0.00 0.00 0.00 82 1012.4
20260507062255 10 98 0.0 1.6 0.00 0.00 0.00 83 1012.4
20260507061755 10 98 0.0 0.0 0.00 0.00 0.00 86 1012.4
20260507061256 9 98 0.0 0.0 0.00 0.00 0.00 87 1012.4
20260507060755 8 98 0.0 0.0 0.00 0.00 0.00 89 1012.4
20260507060254 8 98 0.0 0.0 0.00 0.00 0.00 90 1012.4
20260507055755 8 98 0.0 0.0 0.00 0.00 0.00 92 1012.4
20260507054756 6 99 0.0 0.0 0.00 0.00 0.00 93 1012.4
20260507053755 6 99 0.0 1.6 0.00 0.00 0.00 92 1012.3
20260507053255 5 105 0.0 1.6 0.00 0.00 0.00 92 1012.3
20260507052756 5 13 0.0 0.0 0.00 0.00 0.00 92 1012.3
20260507051756 5 359 0.0 0.0 0.00 0.00 0.00 92 1012.3
20260507051256 5 359 0.0 0.0 0.00 0.00 0.00 92 1012.3
20260507050755 5 359 0.0 0.0 0.00 0.00 0.00 91 1012.3
20260507050255 5 359 0.0 0.0 0.00 0.00 0.00 91 1012.3
20260507045757 5 359 0.0 0.0 0.00 0.00 0.00 91 1012.2
20260507045257 5 359 0.0 0.0 0.00 0.00 0.00 91 1012.2
20260507044758 6 359 0.0 0.0 0.00 0.00 0.00 91 1012.3
20260507044256 6 359 0.0 0.0 0.00 0.00 0.00 91 1012.2
20260507043756 6 359 0.0 0.0 0.00 0.00 0.00 91 1012.3
20260507043255 6 359 0.0 0.0 0.00 0.00 0.00 92 1012.2
20260507042755 6 359 0.0 0.0 0.00 0.00 0.00 91 1012.2
20260507042256 6 359 0.0 0.0 0.00 0.00 0.00 91 1012.3
20260507041757 6 359 0.0 0.0 0.00 0.00 0.00 91 1012.2
20260507041255 6 359 0.0 0.0 0.00 0.00 0.00 91 1012.2
20260507040757 6 359 0.0 0.0 0.00 0.00 0.00 91 1012.2
20260507040256 6 359 0.0 0.0 0.00 0.00 0.00 90 1012.2
20260507035756 6 359 0.0 0.0 0.00 0.00 0.00 90 1012.2
20260507035256 6 359 0.0 0.0 0.00 0.00 0.00 90 1012.3
20260507034757 6 359 0.0 0.0 0.00 0.00 0.00 90 1012.3
20260507034258 6 359 0.0 0.0 0.00 0.00 0.00 90 1012.3
20260507033756 7 359 0.0 0.0 0.00 0.00 0.00 90 1012.3
20260507033256 7 359 0.0 0.0 0.00 0.00 0.00 90 1012.3
20260507032258 7 359 0.0 0.0 0.00 0.00 0.00 90 1012.3
20260507031756 7 342 0.0 0.0 0.00 0.00 0.00 90 1012.3
20260507030757 7 342 0.0 0.0 0.00 0.00 0.00 89 1012.4
20260507030257 7 342 0.0 0.0 0.00 0.00 0.00 89 1012.4
20260507025758 7 342 0.0 0.0 0.00 0.00 0.00 89 1012.4
20260507025257 7 342 0.0 0.0 0.00 0.00 0.00 88 1012.4
20260507024756 7 342 0.0 0.0 0.00 0.00 0.00 88 1012.4
20260507024258 8 342 0.0 0.0 0.00 0.00 0.00 88 1012.4
20260507023757 8 342 0.0 0.0 0.00 0.00 0.00 87 1012.4
20260507023257 8 342 0.0 0.0 0.00 0.00 0.00 87 1012.4
20260507022756 8 342 0.0 0.0 0.00 0.00 0.00 87 1012.4
20260507022257 8 342 0.0 0.0 0.00 0.00 0.00 87 1012.4
20260507021757 8 342 0.0 0.0 0.00 0.00 0.00 87 1012.4
20260507020757 8 342 0.0 0.0 0.00 0.00 0.00 86 1012.4
20260507020257 8 342 0.0 0.0 0.00 0.00 0.00 86 1012.4
20260507015257 9 342 0.0 0.0 0.00 0.00 0.00 86 1012.5
20260507014258 9 342 0.0 0.0 0.00 0.00 0.00 86 1012.5
20260507013757 9 342 0.0 0.0 0.00 0.00 0.00 86 1012.5
20260507013258 9 342 0.0 0.0 0.00 0.00 0.00 86 1012.5
20260507012257 9 342 0.0 0.0 0.00 0.00 0.00 87 1012.5
20260507011757 9 342 0.0 0.0 0.00 0.00 0.00 87 1012.5
20260507010758 9 342 0.0 0.0 0.00 0.00 0.00 87 1012.6
20260507005758 9 342 0.0 0.0 0.00 0.00 0.00 87 1012.6
20260507005305 9 342 0.0 0.0 0.00 0.00 0.00 86 1012.7
20260507004804 9 342 0.0 0.0 0.00 0.00 0.00 86 1012.7
20260507004305 9 342 0.0 0.0 0.00 0.00 0.00 86 1012.7
20260507003757 9 342 0.0 0.0 0.00 0.00 0.00 86 1012.8
20260507003259 9 342 0.0 0.0 0.00 0.00 0.00 86 1012.8
20260507002757 9 342 0.0 0.0 0.00 0.00 0.00 85 1012.8
20260507002259 9 342 0.0 0.0 0.00 0.00 0.00 85 1012.8
20260507001758 9 342 0.0 0.0 0.00 0.00 0.00 85 1012.8
20260507001257 10 342 0.0 0.0 0.00 0.00 0.00 85 1012.9
20260507000759 9 342 0.0 0.0 0.00 0.00 0.00 85 1012.9
20260507000259 10 342 0.0 0.0 0.00 0.00 0.00 85 1012.9
20260506235758 10 342 0.0 0.0 0.00 0.00 0.00 85 1012.9
20260506235300 10 342 0.0 1.6 0.00 0.00 0.00 85 1013.0
20260506234758 10 338 0.0 0.0 0.00 0.00 0.00 85 1013.0
20260506234259 10 338 0.0 0.0 0.00 0.00 0.00 85 1013.0
20260506233758 10 338 0.0 0.0 0.00 0.00 0.00 85 1013.1
20260506233258 10 338 0.0 0.0 0.00 0.00 0.00 85 1013.1
20260506232758 9 338 0.0 0.0 0.00 0.00 0.00 86 1013.1
20260506232258 10 338 0.0 0.0 0.00 0.00 0.00 86 1013.0
20260506231758 10 338 0.0 0.0 0.00 0.00 0.00 86 1013.1
20260506230815 10 338 0.0 0.0 0.00 0.00 0.00 85 1013.1
20260506225758 10 338 0.0 0.0 0.00 0.00 0.00 85 1013.1
20260506225300 10 336 0.0 0.0 0.00 0.00 0.00 85 1013.2
20260506224300 10 336 0.0 0.0 0.00 0.00 0.00 85 1013.1
20260506223800 10 336 0.0 0.0 0.00 0.00 0.00 84 1013.1
20260506223259 10 336 0.0 0.0 0.00 0.00 0.00 84 1013.1
20260506222259 10 356 0.0 0.0 0.00 0.00 0.00 84 1013.1
20260506221759 10 356 0.0 0.0 0.00 0.00 0.00 84 1013.1
20260506221258 10 356 0.0 0.0 0.00 0.00 0.00 84 1013.1
20260506220259 10 356 0.0 0.0 0.00 0.00 0.00 84 1013.1
20260506215759 10 356 0.0 0.0 0.00 0.00 0.00 84 1013.1
20260506214259 10 342 0.0 0.0 0.00 0.00 0.00 83 1013.1
20260506213758 10 342 0.0 0.0 0.00 0.00 0.00 83 1013.2
20260506213259 10 342 0.0 1.6 0.00 0.00 0.00 83 1013.2
20260506212759 10 346 0.0 0.0 0.00 0.00 0.00 83 1013.2
20260506212300 10 346 0.0 1.6 0.00 0.00 0.00 83 1013.2
20260506211800 10 345 0.0 1.6 0.00 0.00 0.00 83 1013.2
20260506211259 10 326 0.0 1.6 0.00 0.00 0.00 83 1013.2
20260506210300 10 326 0.0 1.6 0.00 0.00 0.00 82 1013.2
20260506205800 10 232 0.0 1.6 0.00 0.00 0.00 82 1013.3
20260506205259 10 226 0.0 0.0 0.00 0.00 0.00 82 1013.3
20260506204801 10 178 0.0 1.6 0.00 0.00 0.00 82 1013.3
20260506204300 10 159 0.0 0.0 0.00 0.00 0.00 82 1013.3
20260506203801 10 159 0.0 0.0 0.00 0.00 0.00 82 1013.2
20260506203300 10 159 0.0 0.0 0.00 0.00 0.00 82 1013.2
20260506202759 10 150 0.0 0.0 0.00 0.00 0.00 82 1013.2
20260506202259 10 216 0.0 1.6 0.00 0.00 0.00 82 1013.2
20260506201300 11 145 0.0 1.6 0.00 0.00 0.00 82 1013.2
20260506200801 11 24 0.0 1.6 0.00 0.00 0.00 82 1013.2
20260506200301 11 189 0.0 0.0 0.00 0.00 0.00 82 1013.1
20260506195800 11 302 0.0 1.6 0.00 0.00 0.00 81 1013.1
20260506195300 11 314 0.0 0.0 0.00 0.00 0.00 81 1013.2
20260506194301 11 337 0.0 1.6 0.00 0.00 0.00 80 1013.2
20260506193800 11 312 0.0 1.6 0.00 0.00 0.00 80 1013.2
20260506193300 11 327 0.0 3.2 0.00 0.00 0.00 80 1013.1
20260506192801 11 324 0.0 1.6 0.00 0.00 0.00 80 1013.1
20260506192300 11 338 0.0 1.6 0.00 0.00 0.00 80 1013.1
20260506191800 11 292 0.0 1.6 0.00 0.00 0.00 80 1013.1
20260506191300 11 34 0.0 1.6 0.00 0.00 0.00 79 1013.1
20260506190301 11 320 0.0 3.2 0.00 0.00 0.00 79 1013.1